Weather History for KUKF - May, 2013

Change the Weather History Date:

Wednesday, May 1, 2013

  Actual Average Record
Temperature  
Mean Temperature 58 °F -  
Max Temperature 62 °F 74 °F 91 °F (2007)
Min Temperature 53 °F 46 °F 33 °F (1971)
Degree Days  
Heating Degree Days 8    
Growing Degree Days 8 (Base 50)    
Moisture  
Dew Point 52 °F    
Average Humidity 80    
Maximum Humidity 100    
Minimum Humidity 68    
Precipitation  
Precipitation 0.00 in - - ()
Sea Level Pressure  
Sea Level Pressure 30.32 in    
Wind  
Wind Speed 4 mph (ENE)    
Max Wind Speed 14 mph    
Max Gust Speed 22 mph    
Visibility 10 miles    
Events      
Averages and records for this station are not official NWS values.
T = Trace of Precipitation, MM = Missing Value Source: NWS Daily Summary

Daily Weather History Graph

Daily Weather History Graph

Search for Another Location

Airport or City:

Trip Planner

Search our weather history database for the weather conditions in past years. The results will help you decide how hot, cold, wet, or windy it might be!

Date:

Astronomy

May. 01, 2013 Rise Set
Actual Time 6:31 AM EDT 8:12 PM EDT
Civil Twilight 6:03 AM EDT 8:39 PM EDT
Nautical Twilight 5:30 AM EDT 9:13 PM EDT
Astronomical Twilight 4:55 AM EDT 9:48 PM EDT
Moon 1:20 AM EDT (5/1) 12:07 PM EDT (5/1)
Length of Visible Light 14h 36m
Length of Day
13h 41m
Waning Gibbous, 59% of the Moon is Illuminated
May 1
Waning Gibbous
May 2
Last Quarter
May 9
New
May 18
First Quarter
May 25
Full

Hourly Weather History & Observations

Time (EDT) Temp. Dew Point Humidity Pressure Visibility Wind Dir Wind Speed Gust Speed Precip Events Conditions
12:15 AM 55.4 °F 53.6 °F 94% 30.26 in 10.0 mi Calm Calm - N/A   Overcast
12:35 AM 57.2 °F 53.6 °F 88% 30.27 in 10.0 mi Calm Calm - N/A   Overcast
1:15 AM 55.4 °F 51.8 °F 88% 30.27 in 10.0 mi Calm Calm - N/A   Scattered Clouds
1:35 AM 55.4 °F 51.8 °F 88% 30.26 in 10.0 mi Calm Calm - N/A   Scattered Clouds
1:55 AM 55.4 °F 51.8 °F 88% 30.26 in 10.0 mi Calm Calm - N/A   Scattered Clouds
2:15 AM 55.4 °F 51.8 °F 88% 30.26 in 10.0 mi Calm Calm - N/A   Scattered Clouds
2:35 AM 55.4 °F 51.8 °F 88% 30.26 in 10.0 mi Calm Calm - N/A   Mostly Cloudy
3:15 AM 55.4 °F 51.8 °F 88% 30.26 in 10.0 mi Calm Calm - N/A   Overcast
3:35 AM 55.4 °F 53.6 °F 94% 30.26 in 10.0 mi Calm Calm - N/A   Overcast
3:55 AM 55.4 °F 51.8 °F 88% 30.26 in 10.0 mi East 3.5 mph - N/A   Overcast
4:15 AM 53.6 °F 51.8 °F 94% 30.26 in 10.0 mi East 3.5 mph - N/A   Overcast
4:35 AM 53.6 °F 51.8 °F 94% 30.26 in 10.0 mi Calm Calm - N/A   Overcast
4:55 AM 53.6 °F 51.8 °F 94% 30.26 in 10.0 mi Calm Calm - N/A   Overcast
5:15 AM 53.6 °F 51.8 °F 94% 30.27 in 10.0 mi ENE 4.6 mph - N/A   Overcast
5:35 AM 53.6 °F 51.8 °F 94% 30.27 in 10.0 mi Calm Calm - N/A   Overcast
6:15 AM 55.4 °F 50.0 °F 82% 30.29 in 10.0 mi ENE 4.6 mph - N/A   Overcast
6:35 AM 55.4 °F 50.0 °F 82% 30.29 in 10.0 mi ENE 4.6 mph - N/A   Overcast
6:55 AM 55.4 °F 50.0 °F 82% 30.30 in 10.0 mi ENE 5.8 mph - N/A   Overcast
7:15 AM 55.4 °F 50.0 °F 82% 30.31 in 10.0 mi NE 5.8 mph - N/A   Overcast
7:35 AM 55.4 °F 50.0 °F 82% 30.31 in 10.0 mi NNE 5.8 mph - N/A   Overcast
7:55 AM 55.4 °F 51.8 °F 88% 30.32 in 10.0 mi NE 6.9 mph - N/A   Overcast
8:15 AM 55.4 °F 51.8 °F 88% 30.32 in 10.0 mi NNE 9.2 mph - N/A   Overcast
8:35 AM 55.4 °F 51.8 °F 88% 30.32 in 10.0 mi NNE 8.1 mph - N/A   Overcast
9:15 AM 59.0 °F 51.8 °F 77% 30.32 in 10.0 mi NNE 9.2 mph 16.1 mph N/A   Overcast
9:35 AM 59.0 °F 51.8 °F 77% 30.32 in 10.0 mi NNE 5.8 mph - N/A   Overcast
9:55 AM 60.8 °F 51.8 °F 72% 30.33 in 10.0 mi NE 6.9 mph - N/A   Overcast
10:15 AM 60.8 °F 50.0 °F 68% 30.33 in 10.0 mi NE 9.2 mph - N/A   Overcast
10:35 AM 60.8 °F 51.8 °F 72% 30.34 in 10.0 mi NE 8.1 mph - N/A   Overcast
10:55 AM 60.8 °F 51.8 °F 72% 30.34 in 10.0 mi ENE 5.8 mph - N/A   Overcast
11:15 AM 60.8 °F 51.8 °F 72% 30.36 in 10.0 mi East 6.9 mph - N/A   Overcast
11:35 AM 62.6 °F 51.8 °F 68% 30.36 in 10.0 mi East 5.8 mph - N/A   Overcast
12:15 PM 62.6 °F 51.8 °F 68% 30.37 in 10.0 mi East 13.8 mph 20.7 mph N/A   Overcast
12:35 PM 60.8 °F 51.8 °F 72% 30.37 in 10.0 mi East 9.2 mph 21.9 mph N/A   Overcast
12:55 PM 60.8 °F 51.8 °F 72% 30.35 in 10.0 mi ENE 13.8 mph 18.4 mph N/A   Overcast
1:15 PM 62.6 °F 51.8 °F 68% 30.35 in 10.0 mi ENE 11.5 mph 18.4 mph N/A   Overcast
1:35 PM 62.6 °F 51.8 °F 68% 30.33 in 10.0 mi ENE 9.2 mph - N/A   Overcast
1:55 PM 62.6 °F 51.8 °F 68% 30.33 in 10.0 mi NE 8.1 mph - N/A   Overcast
2:15 PM 60.8 °F 51.8 °F 72% 30.33 in 10.0 mi ENE 10.4 mph - N/A   Overcast
2:35 PM 62.6 °F 51.8 °F 68% 30.32 in 10.0 mi ENE 8.1 mph - N/A   Overcast
2:55 PM 62.6 °F 51.8 °F 68% 30.32 in 10.0 mi ENE 6.9 mph - N/A   Overcast
3:15 PM 62.6 °F 51.8 °F 68% 30.32 in 10.0 mi East 8.1 mph - N/A   Overcast
3:35 PM 62.6 °F 51.8 °F 68% 30.32 in 10.0 mi East 5.8 mph - N/A   Overcast
3:55 PM 62.6 °F 51.8 °F 68% 30.32 in 10.0 mi ENE 6.9 mph - N/A   Overcast
4:15 PM 62.6 °F 51.8 °F 68% 30.32 in 10.0 mi NE 5.8 mph - N/A   Overcast
4:35 PM 62.6 °F 51.8 °F 68% 30.32 in 10.0 mi NE 8.1 mph - N/A   Overcast
4:55 PM 62.6 °F 51.8 °F 68% 30.32 in 10.0 mi NE 4.6 mph - N/A   Overcast
5:15 PM 62.6 °F 51.8 °F 68% 30.32 in 10.0 mi Calm Calm - N/A   Overcast
5:35 PM 62.6 °F 53.6 °F 72% 30.32 in 10.0 mi NE 6.9 mph - N/A   Overcast
6:15 PM 60.8 °F 51.8 °F 72% 30.32 in 10.0 mi East 4.6 mph - N/A   Overcast
6:35 PM 60.8 °F 53.6 °F 77% 30.31 in 10.0 mi ESE 3.5 mph - N/A   Overcast
7:15 PM 60.8 °F 53.6 °F 77% 30.32 in 10.0 mi Calm Calm - N/A   Overcast
7:35 PM 60.8 °F 53.6 °F 77% 30.32 in 10.0 mi East 3.5 mph - N/A   Overcast
7:55 PM 60.8 °F 53.6 °F 77% 30.32 in 10.0 mi Calm Calm - N/A   Overcast
8:15 PM 60.8 °F 51.8 °F 72% 30.33 in 10.0 mi ENE 9.2 mph 16.1 mph N/A   Overcast
8:35 PM 59.0 °F 53.6 °F 82% 30.34 in 10.0 mi ENE 3.5 mph - N/A   Overcast
8:55 PM 59.0 °F 53.6 °F 82% 30.35 in 10.0 mi Calm Calm - N/A   Overcast
9:35 PM 59.0 °F 51.8 °F 77% 30.37 in 10.0 mi ENE 4.6 mph - N/A   Overcast
9:55 PM 55.4 °F 51.8 °F 88% 30.38 in 7.0 mi East 10.4 mph 18.4 mph N/A   Overcast
10:35 PM 53.6 °F 53.6 °F 100% 30.39 in 10.0 mi ENE 4.6 mph - N/A   Overcast
10:55 PM 53.6 °F 53.6 °F 100% 30.38 in 10.0 mi NE 4.6 mph - N/A   Overcast
11:15 PM 53.6 °F 53.6 °F 100% 30.38 in 10.0 mi NE 3.5 mph - N/A   Overcast
11:35 PM 53.6 °F 51.8 °F 94% 30.38 in 10.0 mi NE 5.8 mph - N/A   Overcast
11:55 PM 53.6 °F 51.8 °F 94% 30.38 in 10.0 mi NE 4.6 mph - N/A   Overcast